Simultaneous Nadir Overpasses (SNOs) Predictions

Prediction of SNOs between AQUA and METOP-B Satellite Orbit:

Table of predicted SNOs for the next 14.0 days since TLE Epoch: 6/21/2014
Index Date (AQUA) Time (AQUA) Lat,Lon (AQUA) SZA (AQUA ) Date (METOP-B) Time (METOP-B) Lat,Lon (METOP-B) SZA (METOP-B ) Distance(km) Time Diff (sec)
1 06/23/2014 16:39:11 -73.73, 104.73 129.67 06/23/2014 16:37:58 -73.72, 104.74 129.67 1.48 73
2 06/23/2014 17:28:40 73.81, -87.80 50.41 06/23/2014 17:28:37 73.79, -87.76 50.40 2.20 3
3 06/23/2014 18:18:06 -73.84, 79.79 129.56 06/23/2014 18:19:17 -73.85, 79.70 129.56 2.96 71
4 06/26/2014 12:13:23 -73.72, 171.21 129.61 06/26/2014 12:12:18 -73.75, 171.22 129.57 3.52 65
5 06/26/2014 13:02:52 73.80, -21.33 50.48 06/26/2014 13:02:57 73.82, -21.28 50.50 2.47 5
6 06/26/2014 13:52:22 -74.03, 145.80 129.27 06/26/2014 13:53:34 -74.03, 146.54 129.31 22.76 72
7 06/29/2014 07:47:34 -73.73,-122.35 129.48 06/29/2014 07:46:38 -73.73,-122.42 129.46 2.15 56
8 06/29/2014 08:37:03 73.81, 45.09 50.62 06/29/2014 08:37:17 73.79, 45.06 50.61 2.35 14
9 06/29/2014 09:26:39 -74.34,-148.48 128.80 06/29/2014 09:27:47 -74.35,-146.24 128.89 67.18 68
10 07/02/2014 03:21:46 -73.75, -55.95 129.27 07/02/2014 03:20:58 -73.76, -55.95 129.25 1.23 48
11 07/02/2014 04:11:15 73.84, 111.49 50.84 07/02/2014 04:11:37 73.81, 111.52 50.81 3.04 22
12 07/04/2014 22:55:58 -73.78, 10.43 128.99 07/04/2014 22:55:18 -73.78, 10.51 128.99 2.83 40
13 07/04/2014 23:45:26 73.83, 177.96 51.06 07/04/2014 23:45:57 73.83, 177.96 51.06 0.17 31




NCC Satellite Simultaneous Nadir Overpasses (SNOs) Prediction Service
